Retour au catalogue

STARLINK-31449

ActifCommunicationsVLEO
NORAD 58966·PAYLOAD·🇺🇸 United States

Lancé Feb 15, 2024 depuis Vandenberg Space Force Base

Loading…

Prochains Passages (prochaines 24 heures)

TLE

FraisSource: CelesTrak SupGP

Époque: Sep 15, 2026, 03:02 UTC

1 58966C 24031B   26258.12687500  .00035395  00000+0  10459-2 0  2589
2 58966  53.1563 134.6252 0001278  82.7135  47.8613 15.34367927    13

Suivez STARLINK-31449 en temps réel avec AllMySat

Download on the App Store